This is the latest recevied weather packets stored in our database for station/object KN4DS-3. If no packets are shown the sender has not sent any weather packets the latest 1 day(s).
| Time | Temp. | Humidity | Pressure | Rain* | Wind** | Luminosity | Snow |
|---|---|---|---|---|---|---|---|
| 1778004004 | 27.78° C | 43% | 1016.4 hPa | 0 mm | 0.45 m/s, 225° | - | - |
| 1778003704 | 27.78° C | 40% | 1016.6 hPa | 0 mm | 0.89 m/s, 94° | - | - |
| 1778003404 | 27.78° C | 41% | 1016.6 hPa | 0 mm | 0.89 m/s, 94° | - | - |
| 1778003104 | 27.78° C | 39% | 1016.7 hPa | 0 mm | 1.34 m/s, 149° | - | - |
| 1778002804 | 27.78° C | 38% | 1016.5 hPa | 0 mm | 0.89 m/s, 122° | - | - |
| 1778002505 | 27.78° C | 38% | 1016.6 hPa | 0 mm | 0.89 m/s, 215° | - | - |
| 1778002204 | 27.22° C | 38% | 1016.6 hPa | 0 mm | 0.45 m/s, 162° | - | - |
| 1778001903 | 27.22° C | 39% | 1016.7 hPa | 0 mm | 1.79 m/s, 111° | - | - |
| 1778001604 | 27.78° C | 40% | 1016.7 hPa | 0 mm | 0.89 m/s, 129° | - | - |
| 1778001304 | 27.78° C | 41% | 1016.7 hPa | 0 mm | 0.89 m/s, 175° | - | - |
| 1778001004 | 27.78° C | 39% | 1016.8 hPa | 0 mm | 0.89 m/s, 232° | - | - |
| 1778000704 | 27.78° C | 42% | 1016.8 hPa | 0 mm | 1.34 m/s, 127° | - | - |
| 1778000404 | 27.22° C | 42% | 1017 hPa | 0 mm | 0.89 m/s, 20° | - | - |
| 1778000104 | 27.22° C | 42% | 1017.1 hPa | 0 mm | 1.34 m/s, 251° | - | - |
| 1777999804 | 27.22° C | 42% | 1017.1 hPa | 0 mm | 1.34 m/s, 121° | - | - |
| 1777999504 | 27.78° C | 42% | 1017.1 hPa | 0 mm | 0.89 m/s, 206° | - | - |
| 1777999205 | 27.22° C | 44% | 1017.1 hPa | 0 mm | 0.89 m/s, 206° | - | - |
| 1777998904 | 26.67° C | 45% | 1017.1 hPa | 0 mm | 0.89 m/s, 114° | - | - |
| 1777998604 | 27.22° C | 44% | 1017.1 hPa | 0 mm | 0.89 m/s, 191° | - | - |
| 1777998304 | 26.67° C | 47% | 1017.2 hPa | 0 mm | 0.45 m/s, 187° | - | - |
| 1777998004 | 26.67° C | 46% | 1017.2 hPa | 0 mm | 1.34 m/s, 154° | - | - |
| 1777997704 | 26.11° C | 47% | 1017.2 hPa | 0 mm | 0.45 m/s, 172° | - | - |
| 1777997404 | 25.56° C | 47% | 1017.4 hPa | 0 mm | 1.34 m/s, 145° | - | - |
| 1777997104 | 26.11° C | 48% | 1017.3 hPa | 0 mm | 0.89 m/s, 146° | - | - |
| 1777996804 | 25.56° C | 46% | 1017.4 hPa | 0 mm | 1.79 m/s, 95° | - | - |
* Rain latest hour (hover to see other rain measurements)
** Current wind speed in m/s (hover to see current wind gust speed)